This demonstration page uses our WeatherBlox Daily Observations layout. Learn more.

Left ArrowRight Arrow

Hourly Observations for September 7, 2021

Temp ( °F °C ) Dew Point ( °F °C ) Humidity (%) Winds ( mph kmh ) Pressure ( in mb ) Visibility ( mi km ) Precip ( " mm )
12:52 am 00:52 Clear 73 22.8 66 18.9 79 79 SSE 8 13 29.77 1008 10 16 0.00 0.00
1:52 am 01:52 Clear 73 22.8 66 18.9 79 79 SSE 10 17 29.76 1008 10 16 0.00 0.00
2:52 am 02:52 Mostly Clear 70 21.1 65 18.3 84 84 SSE 9 15 29.76 1008 10 16 0.00 0.00
3:52 am 03:52 Mostly Clear 69 20.6 65 18.3 87 87 SSE 8 13 29.75 1007 10 16 0.00 0.00
4:52 am 04:52 Partly Cloudy 70 21.1 64 17.8 82 82 S 9 15 29.75 1007 10 16 0.00 0.00
5:52 am 05:52 Partly Cloudy 69 20.6 64 17.8 84 84 SSE 8 13 29.74 1007 10 16 0.00 0.00
6:52 am 06:52 Mostly Cloudy 68 20 64 17.8 87 87 SSE 9 15 29.72 1007 10 16 0.00 0.00
7:52 am 07:52 Mostly Cloudy 70 21.1 64 17.8 82 82 SSE 5 7 29.77 1008 10 16 0.00 0.00
8:52 am 08:52 Mostly Cloudy 75 23.9 64 17.8 69 69 NW 8 13 29.78 1009 10 16 0.00 0.00
10:52 am 10:52 Mostly Sunny 80 26.7 65 18.3 60 60 N 17 28 29.82 1010 10 16 0.00 0.00
11:52 am 11:52 Sunny 81 27.2 65 18.3 58 58 NNW 20 31 29.84 1011 10 16 0.00 0.00
12:52 pm 12:52 Sunny 83 28.3 64 17.8 53 53 NNW 18 30 29.86 1011 10 16 0.00 0.00
1:52 pm 13:52 Sunny 84 28.9 59 15 43 43 NNW 15 24 29.88 1012 10 16 0.00 0.00
2:52 pm 14:52 Sunny 83 28.3 52 11.1 34 34 NNW 22 35 29.89 1012 10 16 0.00 0.00
3:52 pm 15:52 Partly Cloudy 83 28.3 54 12.2 37 37 N 16 26 29.89 1012 10 16 0.00 0.00
4:52 pm 16:52 Mostly Sunny 82 27.8 52 11.1 35 35 NNW 14 22 29.90 1012 10 16 0.00 0.00
5:52 pm 17:52 Mostly Sunny 80 26.7 51 10.6 37 37 NNW 13 20 29.91 1013 10 16 0.00 0.00
6:52 pm 18:52 Sunny 77 25 57 13.9 50 50 NW 6 9 29.91 1013 10 16 0.00 0.00
7:52 pm 19:52 Clear 69 20.6 55 12.8 61 61 NW 8 13 29.93 1013 10 16 0.00 0.00
8:52 pm 20:52 Clear 68 20 54 12.2 61 61 N 6 9 29.93 1014 10 16 0.00 0.00
9:52 pm 21:52 Clear 67 19.4 57 13.9 71 71 NNW 5 7 29.96 1014 10 16 0.00 0.00
10:52 pm 22:52 Clear 64 17.8 54 12.2 70 70 NNW 3 6 29.97 1015 10 16 0.00 0.00
11:52 pm 23:52 Clear 64 17.8 55 12.8 73 73 Calm 29.97 1015 10 16 0.00 0.00

Powered by AerisWeather